Regional Weather Roundup
Issued by NWS

Home | Current Version | Previous Version | Text Only | Print | Product List | Glossary Off
Versions: 1 2 3 4 5 6 7 8 9 10 11 12 13 14 15 16 17 18 19 20 21 22 23 24 25 26 27 28 29 30 31 32 33 34 35 36 37 38 39 40 41 42 43 44 45 46 47 48 49 50

000
ASUS43 KOAX 040810
RWRNE

WEATHER ROUNDUP FOR NEBRASKA
NATIONAL WEATHER SERVICE OMAHA NE
200 AM CST SUN DEC 04 2016

NOTES: SATELLITE DATA IS BEING USED TO AUGMENT CLOUD COVER ABOVE
       12000 FEET.
       "FAIR" INDICATES FEW OR NO CLOUDS BELOW 12,000 FEET WITH NO
       SIGNIFICANT WEATHER AND/OR OBSTRUCTIONS TO VISIBILITY.

  * THESE STATIONS DO NOT REPORT WEATHER SUCH AS RAIN...SNOW OR FOG.

NEZ001>004-019>022-054>056-040900-
NEBRASKA PANHANDLE

CITY           SKY/WX    TMP DP  RH WIND       PRES   REMARKS
SCOTTSBLUFF    CLEAR     20  12  71 NW8       30.01F WCI  10
ALLIANCE       MOCLDY    29  17  61 W13       29.97F WCI  19
CHADRON        MOCLDY    27  17  66 SW9       29.96F WCI  18
KIMBALL        CLEAR     24  15  67 W10       30.00F WCI  14
SIDNEY         CLEAR     24  13  62 W13       30.01S WCI  12
$$

NEZ057>060-069>072-079>082-040900-
SOUTHWEST NEBRASKA

CITY           SKY/WX    TMP DP  RH WIND       PRES   REMARKS
NORTH PLATTE   CLEAR     20  18  92 NW7       29.99S WCI  11
IMPERIAL       PTCLDY    27  15  61 W12       30.02R WCI  17
LEXINGTON      CLOUDY    29  28  95 W5        29.99S FOG     WCI  24
MCCOOK         CLEAR     24  19  81 W9        30.01S WCI  14
OGALLALA       CLOUDY    27  18  67 CALM      30.01S
$$

NEZ005>010-023>029-035>040-094-040900-
NORTH CENTRAL NEBRASKA

CITY           SKY/WX    TMP DP  RH WIND       PRES   REMARKS
VALENTINE      CLEAR     21  17  84 SW8       29.93S WCI  11
AINSWORTH      PTCLDY    30  22  73 W8        29.93F WCI  23
BROKEN BOW     CLEAR     30  28  92 CALM      29.96F
O`NEILL        CLEAR     31  30  95 SW7       29.94F WCI  25
ORD            CLOUDY    29  26  89 CALM      29.97S
THEDFORD       PTCLDY    26  21  80 W6        29.97R WCI  19
$$

NEZ041-046>049-061>064-073>077-083>087-040900-
SOUTH CENTRAL NEBRASKA

CITY           SKY/WX    TMP DP  RH WIND       PRES   REMARKS
GRAND ISLAND   CLOUDY    33  32  96 W12       30.00S WCI  24
AURORA         CLOUDY    32  32 100 W3        30.00S
HASTINGS       CLOUDY    32  31  96 SW7       30.01S WCI  26
HEBRON         CLOUDY    32  32  99 W5        30.03S FOG     WCI  28
HOLDREGE       CLOUDY    32  32  99 W10       29.98F FOG     WCI  24
KEARNEY *      CLOUDY    32  28  86 W8        29.99F WCI  25
YORK           CLOUDY    32  32 100 CALM      30.01S
$$

NEZ011>018-030>034-042>045-040900-
NORTHEAST NEBRASKA

CITY           SKY/WX    TMP DP  RH WIND       PRES   REMARKS
NORFOLK        CLOUDY    33  30  88 SW9       29.97F WCI  25
ALBION         CLOUDY    33  32  94 SW6       29.98F WCI  28
BLAIR          CLOUDY    33  33  98 S7        30.01S FOG     WCI  27
FREMONT        CLOUDY    33  33 100 SW3       30.02S
TEKAMAH        CLOUDY    32  32 100 S3        30.02F FOG
WAYNE          CLOUDY    33  32  96 SW6       29.98F WCI  28
$$

NEZ050>053-065>068-078-088>093-040900-
SOUTHEAST NEBRASKA

CITY           SKY/WX    TMP DP  RH WIND       PRES   REMARKS
LINCOLN        CLOUDY    33  32  96 W8        30.03F WCI  26
OMAHA EPPLEY   LGT RAIN  34  31  88 S6        30.03S FOG     WCI  29
BEATRICE       CLOUDY    34  34  99 SW5       30.03S WCI  30
FALLS CITY     RAIN      40  40 100 S5        30.05S FOG
NEBRASKA CITY  LGT RAIN  37  37 100 SW9       30.03F WCI  30
PLATTSMOUTH    DRIZZLE   34  32  91 S7        30.03F WCI  28
$$

NEZ044-045-051>053-067-040900-
OMAHA AREA

CITY           SKY/WX    TMP DP  RH WIND       PRES   REMARKS
OMAHA EPPLEY   LGT RAIN  34  31  88 S6        30.03S FOG     WCI  29
BLAIR          CLOUDY    33  33  98 S7        30.01S FOG     WCI  27
FREMONT        CLOUDY    33  33 100 SW3       30.02S
MILLARD        CLOUDY    34  33  94 CALM      30.03S FOG
OFFUTT AFB     CLOUDY    36  36 100 SW7       30.02F WCI  30
PLATTSMOUTH    DRIZZLE   34  32  91 S7        30.03F WCI  28
WAHOO          CLOUDY    32  32  99 SW3       30.02F FOG
$$




USA.gov is the U.S. government's official web portal to all federal, state and local government web resources and services.